owner,sensor,date,latitude,longitude,vertical_datum,mass_concentration_of_oxygen_in_sea_water,qcFlag 
DISL,ioos:station:DISL:KATA:1,2016-10-01T00:00:00Z,30.2583,-88.2131,4.085,6.11,1111122 
DISL,ioos:station:DISL:KATA:1,2016-10-01T00:30:00Z,30.2583,-88.2131,4.106,6.02,1111122 
DISL,ioos:station:DISL:KATA:1,2016-10-01T01:00:00Z,30.2583,-88.2131,4.131,5.92,1111122 
DISL,ioos:station:DISL:KATA:1,2016-10-01T01:30:00Z,30.2583,-88.2131,4.153,5.71,1111122 
DISL,ioos:station:DISL:KATA:1,2016-10-01T02:00:00Z,30.2583,-88.2131,4.163,6.31,1111122 
DISL,ioos:station:DISL:KATA:1,2016-10-01T02:30:00Z,30.2583,-88.2131,4.18,6.86,1111122 
DISL,ioos:station:DISL:KATA:1,2016-10-01T03:00:00Z,30.2583,-88.2131,4.17,6.36,1111122 
DISL,ioos:station:DISL:KATA:1,2016-10-01T03:30:00Z,30.2583,-88.2131,4.168,6.1,1111122 
DISL,ioos:station:DISL:KATA:1,2016-10-01T04:00:00Z,30.2583,-88.2131,4.165,6.08,1111122 
DISL,ioos:station:DISL:KATA:1,2016-10-01T04:30:00Z,30.2583,-88.2131,4.136,5.98,1111122 
DISL,ioos:station:DISL:KATA:1,2016-10-01T05:00:00Z,30.2583,-88.2131,4.126,5.61,1111122 
DISL,ioos:station:DISL:KATA:1,2016-10-01T05:30:00Z,30.2583,-88.2131,4.11,5.52,1111122 
DISL,ioos:station:DISL:KATA:1,2016-10-01T06:00:00Z,30.2583,-88.2131,4.089,5.77,1111122 
DISL,ioos:station:DISL:KATA:1,2016-10-01T06:30:00Z,30.2583,-88.2131,4.09,5.87,1111122 
DISL,ioos:station:DISL:KATA:1,2016-10-01T07:00:00Z,30.2583,-88.2131,4.082,5.97,1111122 
DISL,ioos:station:DISL:KATA:1,2016-10-01T07:30:00Z,30.2583,-88.2131,4.067,6.0,1111122 
DISL,ioos:station:DISL:KATA:1,2016-10-01T08:00:00Z,30.2583,-88.2131,4.051,6.27,1111122 
DISL,ioos:station:DISL:KATA:1,2016-10-01T08:30:00Z,30.2583,-88.2131,4.029,6.51,1111122 
DISL,ioos:station:DISL:KATA:1,2016-10-01T09:00:00Z,30.2583,-88.2131,3.999,6.57,1111122 
DISL,ioos:station:DISL:KATA:1,2016-10-01T09:30:00Z,30.2583,-88.2131,3.965,6.62,1111122 
DISL,ioos:station:DISL:KATA:1,2016-10-01T10:00:00Z,30.2583,-88.2131,3.94,6.81,1111122 
DISL,ioos:station:DISL:KATA:1,2016-10-01T10:30:00Z,30.2583,-88.2131,3.919,6.82,1111122 
DISL,ioos:station:DISL:KATA:1,2016-10-01T11:00:00Z,30.2583,-88.2131,3.907,6.79,1111122 
DISL,ioos:station:DISL:KATA:1,2016-10-01T11:30:00Z,30.2583,-88.2131,3.905,6.46,1111122 
DISL,ioos:station:DISL:KATA:1,2016-10-01T12:00:00Z,30.2583,-88.2131,3.925,6.21,1111122 
DISL,ioos:station:DISL:KATA:1,2016-10-01T12:30:00Z,30.2583,-88.2131,3.953,5.95,1111122 
DISL,ioos:station:DISL:KATA:1,2016-10-01T13:00:00Z,30.2583,-88.2131,3.993,6.23,1111122 
DISL,ioos:station:DISL:KATA:1,2016-10-01T13:30:00Z,30.2583,-88.2131,4.034,5.72,1111122 
DISL,ioos:station:DISL:KATA:1,2016-10-01T14:00:00Z,30.2583,-88.2131,4.053,6.11,1111122 
DISL,ioos:station:DISL:KATA:1,2016-10-01T14:30:00Z,30.2583,-88.2131,4.051,6.1,1111122 
DISL,ioos:station:DISL:KATA:1,2016-10-01T15:00:00Z,30.2583,-88.2131,4.044,6.18,1111122 
DISL,ioos:station:DISL:KATA:1,2016-10-01T15:30:00Z,30.2583,-88.2131,4.022,6.03,1111122 
DISL,ioos:station:DISL:KATA:1,2016-10-01T16:00:00Z,30.2583,-88.2131,4.003,6.05,1111122 
DISL,ioos:station:DISL:KATA:1,2016-10-01T16:30:00Z,30.2583,-88.2131,3.993,6.17,1111122 
DISL,ioos:station:DISL:KATA:1,2016-10-01T17:00:00Z,30.2583,-88.2131,3.999,6.45,1111122 
DISL,ioos:station:DISL:KATA:1,2016-10-01T17:30:00Z,30.2583,-88.2131,4.02,5.9,1111122 
DISL,ioos:station:DISL:KATA:1,2016-10-01T18:00:00Z,30.2583,-88.2131,4.06,6.16,1111122 
DISL,ioos:station:DISL:KATA:1,2016-10-01T18:30:00Z,30.2583,-88.2131,4.088,6.37,1111122 
DISL,ioos:station:DISL:KATA:1,2016-10-01T19:00:00Z,30.2583,-88.2131,4.101,6.66,1111122 
DISL,ioos:station:DISL:KATA:1,2016-10-01T19:30:00Z,30.2583,-88.2131,4.096,6.51,1111122 
DISL,ioos:station:DISL:KATA:1,2016-10-01T20:00:00Z,30.2583,-88.2131,4.083,6.32,1111122 
DISL,ioos:station:DISL:KATA:1,2016-10-01T20:30:00Z,30.2583,-88.2131,4.056,6.47,1111122 
DISL,ioos:station:DISL:KATA:1,2016-10-01T21:00:00Z,30.2583,-88.2131,4.034,6.47,1111122 
DISL,ioos:station:DISL:KATA:1,2016-10-01T21:30:00Z,30.2583,-88.2131,4.028,6.58,1111122 
DISL,ioos:station:DISL:KATA:1,2016-10-01T22:00:00Z,30.2583,-88.2131,4.017,6.85,1111122 
DISL,ioos:station:DISL:KATA:1,2016-10-01T22:30:00Z,30.2583,-88.2131,4.024,6.54,1111122 
DISL,ioos:station:DISL:KATA:1,2016-10-01T23:00:00Z,30.2583,-88.2131,4.039,6.38,1111122 
DISL,ioos:station:DISL:KATA:1,2016-10-01T23:30:00Z,30.2583,-88.2131,4.047,6.2,1111122 
DISL,ioos:station:DISL:KATA:1,2016-10-02T00:00:00Z,30.2583,-88.2131,4.075,6.07,1111122 
DISL,ioos:station:DISL:KATA:1,2016-10-02T00:30:00Z,30.2583,-88.2131,4.105,5.96,1111122 
DISL,ioos:station:DISL:KATA:1,2016-10-02T01:00:00Z,30.2583,-88.2131,4.122,6.42,1111122 
DISL,ioos:station:DISL:KATA:1,2016-10-02T01:30:00Z,30.2583,-88.2131,4.143,6.05,1111122 
DISL,ioos:station:DISL:KATA:1,2016-10-02T02:00:00Z,30.2583,-88.2131,4.163,6.09,1111122 
DISL,ioos:station:DISL:KATA:1,2016-10-02T02:30:00Z,30.2583,-88.2131,4.176,6.04,1111122 
DISL,ioos:station:DISL:KATA:1,2016-10-02T03:00:00Z,30.2583,-88.2131,4.171,6.45,1111122 
DISL,ioos:station:DISL:KATA:1,2016-10-02T03:30:00Z,30.2583,-88.2131,4.176,6.77,1111122 
DISL,ioos:station:DISL:KATA:1,2016-10-02T04:00:00Z,30.2583,-88.2131,4.164,6.68,1111122 
DISL,ioos:station:DISL:KATA:1,2016-10-02T04:30:00Z,30.2583,-88.2131,4.153,6.35,1111122 
DISL,ioos:station:DISL:KATA:1,2016-10-02T05:00:00Z,30.2583,-88.2131,4.141,6.38,1111122 
DISL,ioos:station:DISL:KATA:1,2016-10-02T05:30:00Z,30.2583,-88.2131,4.126,6.41,1111122 
DISL,ioos:station:DISL:KATA:1,2016-10-02T06:00:00Z,30.2583,-88.2131,4.119,6.31,1111122 
DISL,ioos:station:DISL:KATA:1,2016-10-02T06:30:00Z,30.2583,-88.2131,4.106,5.6,1111122 
DISL,ioos:station:DISL:KATA:1,2016-10-02T07:00:00Z,30.2583,-88.2131,4.101,5.96,1111122 
DISL,ioos:station:DISL:KATA:1,2016-10-02T07:30:00Z,30.2583,-88.2131,4.084,6.11,1111122 
DISL,ioos:station:DISL:KATA:1,2016-10-02T08:00:00Z,30.2583,-88.2131,4.067,6.26,1111122 
DISL,ioos:station:DISL:KATA:1,2016-10-02T08:30:00Z,30.2583,-88.2131,4.048,6.36,1111122 
DISL,ioos:station:DISL:KATA:1,2016-10-02T09:00:00Z,30.2583,-88.2131,4.025,6.44,1111122 
DISL,ioos:station:DISL:KATA:1,2016-10-02T09:30:00Z,30.2583,-88.2131,3.987,6.16,1111122 
DISL,ioos:station:DISL:KATA:1,2016-10-02T10:00:00Z,30.2583,-88.2131,3.95,6.03,1111122 
DISL,ioos:station:DISL:KATA:1,2016-10-02T10:30:00Z,30.2583,-88.2131,3.917,6.01,1111122 
DISL,ioos:station:DISL:KATA:1,2016-10-02T11:00:00Z,30.2583,-88.2131,3.888,6.21,1111122 
DISL,ioos:station:DISL:KATA:1,2016-10-02T11:30:00Z,30.2583,-88.2131,3.871,6.26,1111122 
DISL,ioos:station:DISL:KATA:1,2016-10-02T12:00:00Z,30.2583,-88.2131,3.876,6.28,1111122 
DISL,ioos:station:DISL:KATA:1,2016-10-02T12:30:00Z,30.2583,-88.2131,3.898,6.26,1111122 
DISL,ioos:station:DISL:KATA:1,2016-10-02T13:00:00Z,30.2583,-88.2131,3.936,6.23,1111122 
DISL,ioos:station:DISL:KATA:1,2016-10-02T13:30:00Z,30.2583,-88.2131,3.971,5.89,1111122 
DISL,ioos:station:DISL:KATA:1,2016-10-02T14:00:00Z,30.2583,-88.2131,3.998,6.04,1111122 
DISL,ioos:station:DISL:KATA:1,2016-10-02T14:30:00Z,30.2583,-88.2131,4.002,6.14,1111122 
DISL,ioos:station:DISL:KATA:1,2016-10-02T15:00:00Z,30.2583,-88.2131,4.008,6.09,1111122 
DISL,ioos:station:DISL:KATA:1,2016-10-02T15:30:00Z,30.2583,-88.2131,3.998,6.05,1111122 
DISL,ioos:station:DISL:KATA:1,2016-10-02T16:00:00Z,30.2583,-88.2131,3.998,5.77,1111122 
DISL,ioos:station:DISL:KATA:1,2016-10-02T16:30:00Z,30.2583,-88.2131,4.008,5.86,1111122 
DISL,ioos:station:DISL:KATA:1,2016-10-02T17:00:00Z,30.2583,-88.2131,4.012,5.92,1111122 
DISL,ioos:station:DISL:KATA:1,2016-10-02T17:30:00Z,30.2583,-88.2131,4.004,5.99,1111122 
DISL,ioos:station:DISL:KATA:1,2016-10-02T18:00:00Z,30.2583,-88.2131,4.036,5.88,1111122 
DISL,ioos:station:DISL:KATA:1,2016-10-02T18:30:00Z,30.2583,-88.2131,4.054,5.8,1111122 
DISL,ioos:station:DISL:KATA:1,2016-10-02T19:00:00Z,30.2583,-88.2131,4.076,5.42,1111122 
DISL,ioos:station:DISL:KATA:1,2016-10-02T19:30:00Z,30.2583,-88.2131,4.091,5.66,1111122 
DISL,ioos:station:DISL:KATA:1,2016-10-02T20:00:00Z,30.2583,-88.2131,4.099,5.88,1111122 
DISL,ioos:station:DISL:KATA:1,2016-10-02T20:30:00Z,30.2583,-88.2131,4.098,6.25,1111122 
DISL,ioos:station:DISL:KATA:1,2016-10-02T21:00:00Z,30.2583,-88.2131,4.086,6.17,1111122 
DISL,ioos:station:DISL:KATA:1,2016-10-02T21:30:00Z,30.2583,-88.2131,4.084,6.07,1111122 
DISL,ioos:station:DISL:KATA:1,2016-10-02T22:00:00Z,30.2583,-88.2131,4.068,6.06,1111122 
DISL,ioos:station:DISL:KATA:1,2016-10-02T22:30:00Z,30.2583,-88.2131,4.056,6.2,1111122 
DISL,ioos:station:DISL:KATA:1,2016-10-02T23:00:00Z,30.2583,-88.2131,4.052,6.04,1111122 
DISL,ioos:station:DISL:KATA:1,2016-10-02T23:30:00Z,30.2583,-88.2131,4.061,5.88,1111122 
DISL,ioos:station:DISL:KATA:1,2016-10-03T00:00:00Z,30.2583,-88.2131,4.074,5.93,1111122 
DISL,ioos:station:DISL:KATA:1,2016-10-03T00:30:00Z,30.2583,-88.2131,4.102,5.98,1111122 
DISL,ioos:station:DISL:KATA:1,2016-10-03T01:00:00Z,30.2583,-88.2131,4.125,5.89,1111122 
DISL,ioos:station:DISL:KATA:1,2016-10-03T01:30:00Z,30.2583,-88.2131,4.161,5.81,1111122 
DISL,ioos:station:DISL:KATA:1,2016-10-03T02:00:00Z,30.2583,-88.2131,4.166,5.75,1111122 
DISL,ioos:station:DISL:KATA:1,2016-10-03T02:30:00Z,30.2583,-88.2131,4.178,6.04,1111122 
DISL,ioos:station:DISL:KATA:1,2016-10-03T03:00:00Z,30.2583,-88.2131,4.196,6.02,1111122 
DISL,ioos:station:DISL:KATA:1,2016-10-03T03:30:00Z,30.2583,-88.2131,4.204,6.74,1111122 
DISL,ioos:station:DISL:KATA:1,2016-10-03T04:00:00Z,30.2583,-88.2131,4.205,6.52,1111122 
DISL,ioos:station:DISL:KATA:1,2016-10-03T04:30:00Z,30.2583,-88.2131,4.203,5.65,1111122 
DISL,ioos:station:DISL:KATA:1,2016-10-03T05:00:00Z,30.2583,-88.2131,4.183,5.62,1111122 
DISL,ioos:station:DISL:KATA:1,2016-10-03T05:30:00Z,30.2583,-88.2131,4.171,5.3,1111122 
DISL,ioos:station:DISL:KATA:1,2016-10-03T06:00:00Z,30.2583,-88.2131,4.151,5.19,1111122 
DISL,ioos:station:DISL:KATA:1,2016-10-03T06:30:00Z,30.2583,-88.2131,4.125,4.89,1111122 
DISL,ioos:station:DISL:KATA:1,2016-10-03T07:00:00Z,30.2583,-88.2131,4.128,5.3,1111122 
DISL,ioos:station:DISL:KATA:1,2016-10-03T07:30:00Z,30.2583,-88.2131,4.119,5.62,1111122 
DISL,ioos:station:DISL:KATA:1,2016-10-03T08:00:00Z,30.2583,-88.2131,4.102,5.82,1111122 
DISL,ioos:station:DISL:KATA:1,2016-10-03T08:30:00Z,30.2583,-88.2131,4.098,5.87,1111122 
DISL,ioos:station:DISL:KATA:1,2016-10-03T09:00:00Z,30.2583,-88.2131,4.091,6.44,1111122 
DISL,ioos:station:DISL:KATA:1,2016-10-03T09:30:00Z,30.2583,-88.2131,4.054,6.61,1111122 
DISL,ioos:station:DISL:KATA:1,2016-10-03T10:00:00Z,30.2583,-88.2131,4.031,6.49,1111122 
DISL,ioos:station:DISL:KATA:1,2016-10-03T10:30:00Z,30.2583,-88.2131,3.991,6.58,1111122 
DISL,ioos:station:DISL:KATA:1,2016-10-03T11:00:00Z,30.2583,-88.2131,3.955,6.53,1111122 
DISL,ioos:station:DISL:KATA:1,2016-10-03T11:30:00Z,30.2583,-88.2131,3.929,6.41,1111122 
DISL,ioos:station:DISL:KATA:1,2016-10-03T12:00:00Z,30.2583,-88.2131,3.908,6.29,1111122 
DISL,ioos:station:DISL:KATA:1,2016-10-03T12:30:00Z,30.2583,-88.2131,3.91,6.24,1111122 
DISL,ioos:station:DISL:KATA:1,2016-10-03T13:00:00Z,30.2583,-88.2131,3.897,6.29,1111122 
DISL,ioos:station:DISL:KATA:1,2016-10-03T13:30:00Z,30.2583,-88.2131,3.916,6.38,1111122 
DISL,ioos:station:DISL:KATA:1,2016-10-03T14:00:00Z,30.2583,-88.2131,3.928,6.34,1111122 
DISL,ioos:station:DISL:KATA:1,2016-10-03T14:30:00Z,30.2583,-88.2131,3.942,6.34,1111122 
DISL,ioos:station:DISL:KATA:1,2016-10-03T15:00:00Z,30.2583,-88.2131,3.968,6.43,1111122 
DISL,ioos:station:DISL:KATA:1,2016-10-03T15:30:00Z,30.2583,-88.2131,3.981,6.56,1111122 
DISL,ioos:station:DISL:KATA:1,2016-10-03T16:00:00Z,30.2583,-88.2131,4.003,6.59,1111122 
DISL,ioos:station:DISL:KATA:1,2016-10-03T16:30:00Z,30.2583,-88.2131,4.012,6.5,1111122 
DISL,ioos:station:DISL:KATA:1,2016-10-03T17:00:00Z,30.2583,-88.2131,4.02,6.42,1111122 
DISL,ioos:station:DISL:KATA:1,2016-10-03T17:30:00Z,30.2583,-88.2131,4.03,6.55,1111122 
DISL,ioos:station:DISL:KATA:1,2016-10-03T18:00:00Z,30.2583,-88.2131,4.038,6.49,1111122 
DISL,ioos:station:DISL:KATA:1,2016-10-03T18:30:00Z,30.2583,-88.2131,4.041,6.57,1111122 
DISL,ioos:station:DISL:KATA:1,2016-10-03T19:00:00Z,30.2583,-88.2131,4.048,6.82,1111122 
DISL,ioos:station:DISL:KATA:1,2016-10-03T19:30:00Z,30.2583,-88.2131,4.071,6.81,1111122 
DISL,ioos:station:DISL:KATA:1,2016-10-03T20:00:00Z,30.2583,-88.2131,4.101,6.92,1111122 
DISL,ioos:station:DISL:KATA:1,2016-10-03T20:30:00Z,30.2583,-88.2131,4.133,6.84,1111122 
DISL,ioos:station:DISL:KATA:1,2016-10-03T21:00:00Z,30.2583,-88.2131,4.154,6.93,1111122 
DISL,ioos:station:DISL:KATA:1,2016-10-03T21:30:00Z,30.2583,-88.2131,4.157,7.08,1111122 
DISL,ioos:station:DISL:KATA:1,2016-10-03T22:00:00Z,30.2583,-88.2131,4.158,7.03,1111122 
DISL,ioos:station:DISL:KATA:1,2016-10-03T22:30:00Z,30.2583,-88.2131,4.154,6.72,1111122 
DISL,ioos:station:DISL:KATA:1,2016-10-03T23:00:00Z,30.2583,-88.2131,4.153,6.5,1111122 
DISL,ioos:station:DISL:KATA:1,2016-10-03T23:30:00Z,30.2583,-88.2131,4.151,6.03,1111122 
DISL,ioos:station:DISL:KATA:1,2016-10-04T00:00:00Z,30.2583,-88.2131,4.167,6.42,1111122 
DISL,ioos:station:DISL:KATA:1,2016-10-04T00:30:00Z,30.2583,-88.2131,4.187,6.65,1111122 
DISL,ioos:station:DISL:KATA:1,2016-10-04T01:00:00Z,30.2583,-88.2131,4.213,6.42,1111122 
DISL,ioos:station:DISL:KATA:1,2016-10-04T01:30:00Z,30.2583,-88.2131,4.243,6.65,1111122 
DISL,ioos:station:DISL:KATA:1,2016-10-04T02:00:00Z,30.2583,-88.2131,4.26,6.78,1111122 
DISL,ioos:station:DISL:KATA:1,2016-10-04T02:30:00Z,30.2583,-88.2131,4.286,6.81,1111122 
DISL,ioos:station:DISL:KATA:1,2016-10-04T03:00:00Z,30.2583,-88.2131,4.304,6.85,1111122 
DISL,ioos:station:DISL:KATA:1,2016-10-04T03:30:00Z,30.2583,-88.2131,4.314,6.89,1111122 
DISL,ioos:station:DISL:KATA:1,2016-10-04T04:00:00Z,30.2583,-88.2131,4.333,6.63,1111122 
DISL,ioos:station:DISL:KATA:1,2016-10-04T04:30:00Z,30.2583,-88.2131,4.34,6.74,1111122 
DISL,ioos:station:DISL:KATA:1,2016-10-04T05:00:00Z,30.2583,-88.2131,4.33,6.79,1111122 
DISL,ioos:station:DISL:KATA:1,2016-10-04T05:30:00Z,30.2583,-88.2131,4.314,6.63,1111122 
DISL,ioos:station:DISL:KATA:1,2016-10-04T06:00:00Z,30.2583,-88.2131,4.291,6.94,1111122 
DISL,ioos:station:DISL:KATA:1,2016-10-04T06:30:00Z,30.2583,-88.2131,4.265,6.23,1111122 
DISL,ioos:station:DISL:KATA:1,2016-10-04T07:00:00Z,30.2583,-88.2131,4.237,6.18,1111122 
DISL,ioos:station:DISL:KATA:1,2016-10-04T07:30:00Z,30.2583,-88.2131,4.22,6.61,1111122 
DISL,ioos:station:DISL:KATA:1,2016-10-04T08:00:00Z,30.2583,-88.2131,4.197,6.62,1111122 
DISL,ioos:station:DISL:KATA:1,2016-10-04T08:30:00Z,30.2583,-88.2131,4.172,6.68,1111122 
DISL,ioos:station:DISL:KATA:1,2016-10-04T09:00:00Z,30.2583,-88.2131,4.145,6.69,1111122 
DISL,ioos:station:DISL:KATA:1,2016-10-04T09:30:00Z,30.2583,-88.2131,4.122,6.7,1111122 
DISL,ioos:station:DISL:KATA:1,2016-10-04T10:00:00Z,30.2583,-88.2131,4.091,6.5,1111122 
DISL,ioos:station:DISL:KATA:1,2016-10-04T10:30:00Z,30.2583,-88.2131,4.061,6.49,1111122 
DISL,ioos:station:DISL:KATA:1,2016-10-04T11:00:00Z,30.2583,-88.2131,4.027,6.62,1111122 
DISL,ioos:station:DISL:KATA:1,2016-10-04T11:30:00Z,30.2583,-88.2131,3.988,6.66,1111122 
DISL,ioos:station:DISL:KATA:1,2016-10-04T12:00:00Z,30.2583,-88.2131,3.961,6.73,1111122 
DISL,ioos:station:DISL:KATA:1,2016-10-04T12:30:00Z,30.2583,-88.2131,3.935,6.66,1111122 
DISL,ioos:station:DISL:KATA:1,2016-10-04T13:00:00Z,30.2583,-88.2131,3.925,6.42,1111122 
DISL,ioos:station:DISL:KATA:1,2016-10-04T13:30:00Z,30.2583,-88.2131,3.926,6.49,1111122 
DISL,ioos:station:DISL:KATA:1,2016-10-04T14:00:00Z,30.2583,-88.2131,3.938,6.47,1111122 
DISL,ioos:station:DISL:KATA:1,2016-10-04T14:30:00Z,30.2583,-88.2131,3.943,6.53,1111122 
DISL,ioos:station:DISL:KATA:1,2016-10-04T15:00:00Z,30.2583,-88.2131,3.964,6.59,1111122 
DISL,ioos:station:DISL:KATA:1,2016-10-04T15:30:00Z,30.2583,-88.2131,3.985,6.39,1111122 
DISL,ioos:station:DISL:KATA:1,2016-10-04T16:00:00Z,30.2583,-88.2131,3.989,6.49,1111122 
DISL,ioos:station:DISL:KATA:1,2016-10-04T16:30:00Z,30.2583,-88.2131,3.99,6.44,1111122 
DISL,ioos:station:DISL:KATA:1,2016-10-04T17:00:00Z,30.2583,-88.2131,3.998,6.49,1111122 
DISL,ioos:station:DISL:KATA:1,2016-10-04T17:30:00Z,30.2583,-88.2131,4.012,6.48,1111122 
DISL,ioos:station:DISL:KATA:1,2016-10-04T18:00:00Z,30.2583,-88.2131,4.025,6.81,1111122 
DISL,ioos:station:DISL:KATA:1,2016-10-04T18:30:00Z,30.2583,-88.2131,4.046,6.45,1111122 
DISL,ioos:station:DISL:KATA:1,2016-10-04T19:00:00Z,30.2583,-88.2131,4.061,6.07,1111122 
DISL,ioos:station:DISL:KATA:1,2016-10-04T19:30:00Z,30.2583,-88.2131,4.072,5.99,1111122 
DISL,ioos:station:DISL:KATA:1,2016-10-04T20:00:00Z,30.2583,-88.2131,4.083,5.99,1111122 
DISL,ioos:station:DISL:KATA:1,2016-10-04T20:30:00Z,30.2583,-88.2131,4.082,5.96,1111122 
DISL,ioos:station:DISL:KATA:1,2016-10-04T21:00:00Z,30.2583,-88.2131,4.103,6.05,1111122 
DISL,ioos:station:DISL:KATA:1,2016-10-04T21:30:00Z,30.2583,-88.2131,4.123,6.36,1111122 
DISL,ioos:station:DISL:KATA:1,2016-10-04T22:00:00Z,30.2583,-88.2131,4.155,6.69,1111122 
DISL,ioos:station:DISL:KATA:1,2016-10-04T22:30:00Z,30.2583,-88.2131,4.182,6.72,1111122 
DISL,ioos:station:DISL:KATA:1,2016-10-04T23:00:00Z,30.2583,-88.2131,4.208,6.53,1111122 
DISL,ioos:station:DISL:KATA:1,2016-10-04T23:30:00Z,30.2583,-88.2131,4.224,7.43,1111122 
DISL,ioos:station:DISL:KATA:1,2016-10-05T00:00:00Z,30.2583,-88.2131,4.25,7.2,1111122 
DISL,ioos:station:DISL:KATA:1,2016-10-05T00:30:00Z,30.2583,-88.2131,4.263,7.27,1111122 
DISL,ioos:station:DISL:KATA:1,2016-10-05T01:00:00Z,30.2583,-88.2131,4.281,7.1,1111122 
DISL,ioos:station:DISL:KATA:1,2016-10-05T01:30:00Z,30.2583,-88.2131,4.296,7.13,1111122 
DISL,ioos:station:DISL:KATA:1,2016-10-05T02:00:00Z,30.2583,-88.2131,4.308,7.03,1111122 
DISL,ioos:station:DISL:KATA:1,2016-10-05T02:30:00Z,30.2583,-88.2131,4.323,6.81,1111122 
DISL,ioos:station:DISL:KATA:1,2016-10-05T03:00:00Z,30.2583,-88.2131,4.348,6.62,1111122 
DISL,ioos:station:DISL:KATA:1,2016-10-05T03:30:00Z,30.2583,-88.2131,4.362,6.18,1111122 
DISL,ioos:station:DISL:KATA:1,2016-10-05T04:00:00Z,30.2583,-88.2131,4.379,6.48,1111122 
DISL,ioos:station:DISL:KATA:1,2016-10-05T04:30:00Z,30.2583,-88.2131,4.389,6.54,1111122 
DISL,ioos:station:DISL:KATA:1,2016-10-05T05:00:00Z,30.2583,-88.2131,4.401,6.53,1111122 
DISL,ioos:station:DISL:KATA:1,2016-10-05T05:30:00Z,30.2583,-88.2131,4.382,6.52,1111122 
DISL,ioos:station:DISL:KATA:1,2016-10-05T06:00:00Z,30.2583,-88.2131,4.366,6.61,1111122 
DISL,ioos:station:DISL:KATA:1,2016-10-05T06:30:00Z,30.2583,-88.2131,4.336,6.57,1111122 
DISL,ioos:station:DISL:KATA:1,2016-10-05T07:00:00Z,30.2583,-88.2131,4.315,6.28,1111122 
DISL,ioos:station:DISL:KATA:1,2016-10-05T07:30:00Z,30.2583,-88.2131,4.288,6.06,1111122 
DISL,ioos:station:DISL:KATA:1,2016-10-05T08:00:00Z,30.2583,-88.2131,4.265,6.44,1111122 
DISL,ioos:station:DISL:KATA:1,2016-10-05T08:30:00Z,30.2583,-88.2131,4.245,6.52,1111122 
DISL,ioos:station:DISL:KATA:1,2016-10-05T09:00:00Z,30.2583,-88.2131,4.237,6.43,1111122 
DISL,ioos:station:DISL:KATA:1,2016-10-05T09:30:00Z,30.2583,-88.2131,4.205,6.33,1111122 
DISL,ioos:station:DISL:KATA:1,2016-10-05T10:00:00Z,30.2583,-88.2131,4.167,6.51,1111122 
DISL,ioos:station:DISL:KATA:1,2016-10-05T10:30:00Z,30.2583,-88.2131,4.127,6.51,1111122 
DISL,ioos:station:DISL:KATA:1,2016-10-05T11:00:00Z,30.2583,-88.2131,4.097,6.54,1111122 
DISL,ioos:station:DISL:KATA:1,2016-10-05T11:30:00Z,30.2583,-88.2131,4.057,6.56,1111122 
DISL,ioos:station:DISL:KATA:1,2016-10-05T12:00:00Z,30.2583,-88.2131,4.031,6.64,1111122 
DISL,ioos:station:DISL:KATA:1,2016-10-05T12:30:00Z,30.2583,-88.2131,3.997,6.46,1111122 
DISL,ioos:station:DISL:KATA:1,2016-10-05T13:00:00Z,30.2583,-88.2131,3.981,6.52,1111122 
DISL,ioos:station:DISL:KATA:1,2016-10-05T13:30:00Z,30.2583,-88.2131,3.963,6.57,1111122 
DISL,ioos:station:DISL:KATA:1,2016-10-05T14:00:00Z,30.2583,-88.2131,3.952,6.49,1111122 
DISL,ioos:station:DISL:KATA:1,2016-10-05T14:30:00Z,30.2583,-88.2131,3.946,6.47,1111122 
DISL,ioos:station:DISL:KATA:1,2016-10-05T15:00:00Z,30.2583,-88.2131,3.935,6.39,1111122 
DISL,ioos:station:DISL:KATA:1,2016-10-05T15:30:00Z,30.2583,-88.2131,3.939,6.39,1111122 
DISL,ioos:station:DISL:KATA:1,2016-10-05T16:00:00Z,30.2583,-88.2131,3.942,6.16,1111122 
DISL,ioos:station:DISL:KATA:1,2016-10-05T16:30:00Z,30.2583,-88.2131,3.956,5.87,1111122 
DISL,ioos:station:DISL:KATA:1,2016-10-05T17:00:00Z,30.2583,-88.2131,3.978,5.95,1111122 
DISL,ioos:station:DISL:KATA:1,2016-10-05T17:30:00Z,30.2583,-88.2131,4.007,5.92,1111122 
DISL,ioos:station:DISL:KATA:1,2016-10-05T18:00:00Z,30.2583,-88.2131,4.024,6.3,1111122 
DISL,ioos:station:DISL:KATA:1,2016-10-05T18:30:00Z,30.2583,-88.2131,4.044,6.41,1111122 
DISL,ioos:station:DISL:KATA:1,2016-10-05T19:00:00Z,30.2583,-88.2131,4.064,6.44,1111122 
DISL,ioos:station:DISL:KATA:1,2016-10-05T19:30:00Z,30.2583,-88.2131,4.074,6.63,1111122 
DISL,ioos:station:DISL:KATA:1,2016-10-05T20:00:00Z,30.2583,-88.2131,4.091,6.58,1111122 
DISL,ioos:station:DISL:KATA:1,2016-10-05T20:30:00Z,30.2583,-88.2131,4.107,6.4,1111122 
DISL,ioos:station:DISL:KATA:1,2016-10-05T21:00:00Z,30.2583,-88.2131,4.122,6.49,1111122 
DISL,ioos:station:DISL:KATA:1,2016-10-05T21:30:00Z,30.2583,-88.2131,4.136,6.49,1111122 
DISL,ioos:station:DISL:KATA:1,2016-10-05T22:00:00Z,30.2583,-88.2131,4.154,6.64,1111122 
DISL,ioos:station:DISL:KATA:1,2016-10-05T22:30:00Z,30.2583,-88.2131,4.168,6.63,1111122 
DISL,ioos:station:DISL:KATA:1,2016-10-05T23:00:00Z,30.2583,-88.2131,4.182,6.67,1111122 
DISL,ioos:station:DISL:KATA:1,2016-10-05T23:30:00Z,30.2583,-88.2131,4.199,6.58,1111122 
DISL,ioos:station:DISL:KATA:1,2016-10-06T00:00:00Z,30.2583,-88.2131,4.21,6.59,1111122 
DISL,ioos:station:DISL:KATA:1,2016-10-06T00:30:00Z,30.2583,-88.2131,4.234,6.48,1111122 
DISL,ioos:station:DISL:KATA:1,2016-10-06T01:00:00Z,30.2583,-88.2131,4.254,6.46,1111122 
DISL,ioos:station:DISL:KATA:1,2016-10-06T01:30:00Z,30.2583,-88.2131,4.289,6.48,1111122 
DISL,ioos:station:DISL:KATA:1,2016-10-06T02:00:00Z,30.2583,-88.2131,4.315,6.5,1111122 
DISL,ioos:station:DISL:KATA:1,2016-10-06T02:30:00Z,30.2583,-88.2131,4.324,6.62,1111122 
DISL,ioos:station:DISL:KATA:1,2016-10-06T03:00:00Z,30.2583,-88.2131,4.335,6.51,1111122 
DISL,ioos:station:DISL:KATA:1,2016-10-06T03:30:00Z,30.2583,-88.2131,4.349,6.5,1111122 
DISL,ioos:station:DISL:KATA:1,2016-10-06T04:00:00Z,30.2583,-88.2131,4.361,6.45,1111122 
DISL,ioos:station:DISL:KATA:1,2016-10-06T04:30:00Z,30.2583,-88.2131,4.369,6.36,1111122 
DISL,ioos:station:DISL:KATA:1,2016-10-06T05:00:00Z,30.2583,-88.2131,4.371,6.27,1111122 
DISL,ioos:station:DISL:KATA:1,2016-10-06T05:30:00Z,30.2583,-88.2131,4.37,6.16,1111122 
DISL,ioos:station:DISL:KATA:1,2016-10-06T06:00:00Z,30.2583,-88.2131,4.37,6.11,1111122 
DISL,ioos:station:DISL:KATA:1,2016-10-06T06:30:00Z,30.2583,-88.2131,4.358,6.07,1111122 
DISL,ioos:station:DISL:KATA:1,2016-10-06T07:00:00Z,30.2583,-88.2131,4.355,6.01,1111122 
DISL,ioos:station:DISL:KATA:1,2016-10-06T07:30:00Z,30.2583,-88.2131,4.346,5.9,1111122 
DISL,ioos:station:DISL:KATA:1,2016-10-06T08:00:00Z,30.2583,-88.2131,4.341,5.78,1111122 
DISL,ioos:station:DISL:KATA:1,2016-10-06T08:30:00Z,30.2583,-88.2131,4.335,5.6,1111122 
DISL,ioos:station:DISL:KATA:1,2016-10-06T09:00:00Z,30.2583,-88.2131,4.316,5.42,1111122 
DISL,ioos:station:DISL:KATA:1,2016-10-06T09:30:00Z,30.2583,-88.2131,4.303,5.26,1111122 
DISL,ioos:station:DISL:KATA:1,2016-10-06T10:00:00Z,30.2583,-88.2131,4.279,5.09,1111122 
DISL,ioos:station:DISL:KATA:1,2016-10-06T10:30:00Z,30.2583,-88.2131,4.252,5.99,1111122 
DISL,ioos:station:DISL:KATA:1,2016-10-06T11:00:00Z,30.2583,-88.2131,4.218,6.55,1111122 
DISL,ioos:station:DISL:KATA:1,2016-10-06T11:30:00Z,30.2583,-88.2131,4.176,6.58,1111122 
DISL,ioos:station:DISL:KATA:1,2016-10-06T12:00:00Z,30.2583,-88.2131,4.15,6.6,1111122 
DISL,ioos:station:DISL:KATA:1,2016-10-06T12:30:00Z,30.2583,-88.2131,4.117,6.52,1111122 
DISL,ioos:station:DISL:KATA:1,2016-10-06T13:00:00Z,30.2583,-88.2131,4.093,6.48,1111122 
DISL,ioos:station:DISL:KATA:1,2016-10-06T13:30:00Z,30.2583,-88.2131,4.068,6.51,1111122 
DISL,ioos:station:DISL:KATA:1,2016-10-06T14:00:00Z,30.2583,-88.2131,4.066,6.46,1111122 
DISL,ioos:station:DISL:KATA:1,2016-10-06T14:30:00Z,30.2583,-88.2131,4.061,6.45,1111122 
DISL,ioos:station:DISL:KATA:1,2016-10-06T15:00:00Z,30.2583,-88.2131,4.047,6.42,1111122 
DISL,ioos:station:DISL:KATA:1,2016-10-06T15:30:00Z,30.2583,-88.2131,4.041,6.38,1111122 